Content
SEND FEEDBACK

Daily
Averages
Monthly
Summary
Canada

BEDFORD, QUEBEC


Home > North America > Canada > Quebec
Elevation: 174 feet     Latitude: 45 28N     Longitude: 073 45W

WEATHER
 
SELECT A DAY
Number of Records: 200,695;   Date Range: 1/1/95 - 9/29/14
 
SHARE

PRINT THIS DATA

[ ← Previous Day ]
WEATHER ALMANAC - JANUARY 20, 2013
[ Next Day → ]
[ °C ]   °F
Weather ElementAverageHighLow
Temperature29.3 °F42.8 °F (7:14 am)5 °F (11:00 pm)
Dewpoint9.7 °F32 °F (3:00 am)-4 °F (10:00 pm)
Humidity72.6 %93 % (11:00 am)47 % (7:00 pm)
Wind Speed25.7 mph46 mph (12:17 pm)
Wind Gust50.6 mph (12:24 pm)
Weather ElementAverage
Visibility9.4 mi
Wind Direction (463.5 °)

Weather ElementTotal
Precipitation---
Heating Degree Days41.1 (Base 65)
Averaged from 52 records on January 20, 2013
WEATHER CONDITIONS BREAKOUT
WIND DIRECTION BREAKOUT
WEATHER BY HOUR - JANUARY 20, 2013
[ °C ]   °F
Local TimeTemperatureDewpointHumidityBarometerVisibilityWind DirectionWind SpeedGust SpeedPrecipitationEventsConditions
12:27 AM33.8 °F0.0 °F8.0 miESE (110°)10.4 mphRain-SnowLight Rain
1:00 AM34.0 °F31.0 °F84 %29.58 in10.0 miSE (130°)8.1 mphSnowLight Snow
1:00 AM33.8 °F30.2 °F87 %29.58 in10.0 miSE (130°)8.1 mphRain-SnowLight Rain
1:24 AM33.8 °F0.0 °F10.0 miSE (140°)9.2 mphRainLight Rain
2:00 AM33.8 °F30.2 °F87 %29.56 in15.0 miSSE (150°)9.2 mphRainLight Rain
3:00 AM35.6 °F32.0 °F87 %29.51 in15.0 miSSE (150°)10.4 mphOvercast
4:00 AM35.6 °F30.2 °F81 %29.42 in15.0 miSE (140°)12.7 mphOvercast
5:00 AM37.4 °F28.4 °F70 %29.36 in15.0 miSSE (150°)18.4 mph25.3 mphOvercast
6:00 AM37.4 °F28.4 °F70 %29.29 in15.0 miSSE (160°)19.6 mphOvercast
7:00 AM38.0 °F28.0 °F57 %29.25 in15.0 miSSE (160°)18.4 mphPartly Cloudy
7:00 AM37.4 °F28.4 °F70 %29.25 in15.0 miSSE (160°)18.4 mph25.3 mphMostly Cloudy
7:14 AM42.8 °F0.0 °F15.0 miSW (220°)18.4 mph31.1 mphRainLight Rain Showers
7:51 AM41.0 °F0.0 °F4.0 miSW (220°)27.6 mph41.4 mphRain-ThunderstormHeavy Thunderstorms and Rain
8:00 AM37.4 °F32.0 °F81 %29.32 in15.0 miSW (230°)35.7 mph47.2 mphRain-ThunderstormLight Thunderstorms and Rain
8:14 AM35.6 °F0.0 °F15.0 miSW (220°)26.5 mph44.9 mphRain-SnowLight Rain Showers
8:40 AM35.6 °F0.0 °F15.0 miSW (220°)21.9 mph27.6 mphMostly Cloudy
9:00 AM37.4 °F30.2 °F75 %29.33 in15.0 miSW (220°)29.9 mph39.1 mphOvercast
9:19 AM37.4 °F0.0 °F15.0 miSW (220°)31.1 mph38.0 mphSnowLight Snow Showers
9:42 AM35.6 °F0.0 °F30.0 miSW (230°)28.8 mph43.7 mphMostly Cloudy
10:00 AM37.4 °F28.4 °F70 %29.36 in15.0 miSW (230°)28.8 mph40.3 mphMostly Cloudy
10:35 AM37.4 °F0.0 °F0.0 mi27.6 (2013°)41.4 mphSmall Hail Showers270
10:40 AM32.0 °F0.0 °F0.0 mi27.6 (2013°)38.0 mph0.00 inLight Snow Showers250
10:43 AM32.0 °F0.0 °F1.0 miWSW (250°)25.3 mph36.8 mphSnowLight Snow Showers
10:50 AM32.0 °F0.0 °F0.0 mi23.0 (2013°)29.9 mph0.00 inLight Small Hail Showers250
11:00 AM32.0 °F30.2 °F93 %29.39 in0.8 miWSW (250°)21.9 mph33.4 mphSnowLight Snow Showers
11:15 AM32.0 °F0.0 °F1.2 miWSW (250°)32.2 mph40.3 mphSnowLight Snow Showers
11:22 AM32.0 °F0.0 °F15.0 miWSW (250°)27.6 mph40.3 mphSnowLight Snow Showers
12:00 PM32.0 °F28.4 °F87 %29.42 in12.0 miSW (230°)31.1 mph38.0 mphSnowLight Snow Showers
12:06 PM32.0 °F0.0 °F1.5 miSW (230°)28.8 mph38.0 mphSnowLight Snow Showers
12:12 PM32.0 °F0.0 °F0.0 mi35.7 (2013°)42.6 mph0.00 inHeavy Snow Showers240
12:17 PM30.2 °F0.0 °F0.0 mi36.8 (2013°)46.0 mph0.00 inHeavy Snow Showers240
12:24 PM30.2 °F0.0 °F1.2 miWSW (250°)29.9 mph50.6 mphSnowLight Snow Showers
12:38 PM32.0 °F0.0 °F6.0 miWSW (250°)32.2 mphSnowLight Snow Showers
12:54 PM30.2 °F0.0 °F0.0 mi29.9 (2013°)41.4 mph0.00 inLight Snow Showers250
1:00 PM29.0 °F28.0 °F92 %29.46 in0.0 miWSW (250°)28.8 mphSnowLight Snow Showers
1:00 PM30.2 °F28.4 °F93 %29.46 in0.5 miWSW (250°)26.5 mph44.9 mphSnowLight Snow Showers
1:08 PM30.2 °F0.0 °F1.8 miWSW (250°)29.9 mph36.8 mphSnowLight Snow Showers
1:13 PM28.4 °F0.0 °F0.0 mi33.4 (2013°)40.3 mph0.00 inHeavy Snow260
1:30 PM26.6 °F0.0 °F1.0 miWest (270°)32.2 mph48.3 mphSnowLight Snow Showers
1:43 PM26.6 °F0.0 °F8.0 miWest (260°)24.2 mph39.1 mphSnowLight Snow Showers
2:00 PM26.6 °F21.2 °F80 %29.55 in2.0 miWest (260°)31.1 mph40.3 mphSnowLight Snow Showers
2:32 PM23.0 °F0.0 °F4.0 miWest (270°)32.2 mph46.0 mphSnowBlowing Snow
3:00 PM21.2 °F12.2 °F68 %29.62 in15.0 miWest (260°)26.5 mph38.0 mphSnowLow Drifting Snow
4:00 PM17.6 °F6.8 °F63 %29.73 in15.0 miWest (270°)25.3 mph42.6 mphSnowLow Drifting Snow
5:00 PM15.8 °F3.2 °F58 %29.80 in15.0 miWest (260°)21.9 mph29.9 mphPartly Cloudy
6:00 PM14.0 °F1.4 °F57 %29.85 in15.0 miWest (260°)21.9 mph29.9 mphClear
7:00 PM12.2 °F-0.4 °F57 %29.88 in15.0 miWest (260°)21.9 mph32.2 mphClear
7:00 PM11.0 °F0.0 °F47 %29.88 in15.0 miWest (260°)24.2 mphPartly Cloudy
8:00 PM10.4 °F-2.2 °F57 %29.91 in15.0 miWest (270°)23.0 mph36.8 mphSnowLow Drifting Snow
9:00 PM8.6 °F-2.2 °F62 %29.94 in15.0 miWest (270°)21.9 mph31.1 mphSnowLow Drifting Snow
10:00 PM6.8 °F-4.0 °F61 %29.97 in15.0 miWest (270°)21.9 mph28.8 mphPartly Cloudy
11:00 PM5.0 °F-4.0 °F66 %30.00 in15.0 miWest (270°)20.7 mphPartly Cloudy
Hourly data recorded from CYUL, located miles away from Bedford, Quebec







STORIES FROM OUR PARTNERS